GW0525 Weather Reports


Display with metric or nautical units.
time (UTC)temp
F
wind
direction
speed
MPH
gust
MPH
rain 1hr
in
rain 24hr
in
rain mn
in
humidity
%
barometer
mb
20260901104603 54 0 0.0 0.0 0.00 0.00 0.00 63 1016.1
20260901103129 55 0 0.0 0.0 0.00 0.00 0.00 63 1016.2
20260901101606 53 0 0.0 0.0 0.00 0.00 0.00 66 1016.2
20260901100107 55 0 0.0 0.0 0.00 0.00 0.00 62 1016.1
20260901094609 54 0 0.0 4.0 0.00 0.00 0.00 63 1016.0
20260901093132 54 350 2.0 3.0 0.00 0.00 0.00 63 1016.0
20260901091609 54 348 3.0 4.0 0.00 0.00 0.00 62 1016.0
20260901090108 56 0 0.0 0.0 0.00 0.00 0.00 59 1016.0
20260901084605 57 0 0.0 0.0 0.00 0.00 0.00 58 1016.2
20260901083108 57 0 0.0 0.0 0.00 0.00 0.00 59 1016.2
20260901081616 57 344 3.0 4.0 0.00 0.00 0.00 58 1016.2
20260901080107 58 0 0.0 0.0 0.00 0.00 0.00 58 1016.3
20260901074604 54 0 0.0 0.0 0.00 0.00 0.00 64 1016.4
20260901073107 54 343 5.0 7.0 0.00 0.00 0.00 64 1016.0
20260901071608 58 350 3.0 5.0 0.00 0.00 0.00 55 1016.0
20260901070107 61 0 0.0 0.0 0.00 0.00 0.00 53 1016.5
20260901064608 58 250 1.0 2.0 0.00 0.00 0.00 57 1016.3
20260901063103 60 0 0.0 3.0 0.00 0.00 0.00 53 1016.0
20260901061607 59 0 1.0 4.0 0.00 0.00 0.00 54 1016.0
20260901060111 63 318 1.0 4.0 0.00 0.00 0.00 49 1016.1
20260901054607 60 0 0.0 0.0 0.00 0.00 0.00 54 1016.0
20260901053124 62 309 4.0 5.0 0.00 0.00 0.00 51 1015.9
20260901051607 62 323 4.0 5.0 0.00 0.00 0.00 51 1015.8
20260901050108 62 316 4.0 6.0 0.00 0.00 0.00 50 1015.7
20260901044605 61 311 3.0 5.0 0.00 0.00 0.00 52 1015.6
20260901043130 60 335 5.0 8.0 0.00 0.00 0.00 53 1015.5
20260901041613 59 329 4.0 6.0 0.00 0.00 0.00 54 1015.3
20260901040109 62 327 5.0 8.0 0.00 0.00 0.00 50 1015.3
20260901034608 64 320 6.0 10.0 0.00 0.00 0.00 47 1015.3
20260901033110 65 325 6.0 9.0 0.00 0.00 0.00 45 1015.4
20260901031605 67 302 6.0 9.0 0.00 0.00 0.00 43 1015.5
20260901030105 66 304 6.0 11.0 0.00 0.00 0.00 43 1015.4
20260901024608 67 298 6.0 10.0 0.00 0.00 0.00 42 1015.4
20260901023105 67 281 5.0 9.0 0.00 0.00 0.00 42 1015.4
20260901021609 68 288 6.0 9.0 0.00 0.00 0.00 41 1015.2
20260901020111 68 288 6.0 9.0 0.00 0.00 0.00 41 1015.1
20260901014605 68 303 4.0 10.0 0.00 0.00 0.00 40 1014.7
20260901013107 70 306 8.0 14.0 0.00 0.00 0.00 38 1014.4
20260901011605 72 291 10.0 17.0 0.00 0.00 0.00 36 1014.4
20260901010107 73 312 8.0 20.0 0.00 0.00 0.00 36 1014.3
20260901004608 74 313 13.0 20.0 0.00 0.00 0.00 34 1014.2
20260901003105 74 325 14.0 24.0 0.00 0.00 0.00 34 1014.1
20260901001612 75 338 12.0 22.0 0.00 0.00 0.00 33 1014.1
20260901000108 75 309 14.0 23.0 0.00 0.00 0.00 33 1014.1
20260831234606 75 277 17.0 30.0 0.00 0.00 0.00 33 1014.0
20260831233102 76 304 17.0 24.0 0.00 0.00 0.00 32 1013.9
20260831231609 76 279 20.0 32.0 0.00 0.00 0.00 32 1014.0
20260831230108 76 284 18.0 28.0 0.00 0.00 0.00 32 1014.0
20260831224604 77 309 17.0 28.0 0.00 0.00 0.00 32 1013.9
20260831223105 76 296 18.0 31.0 0.00 0.00 0.00 32 1013.8
20260831221609 76 304 16.0 29.0 0.00 0.00 0.00 31 1013.8
20260831220131 76 302 15.0 31.0 0.00 0.00 0.00 33 1013.8
20260831214606 76 304 21.0 35.0 0.00 0.00 0.00 32 1013.9
20260831213108 76 262 22.0 35.0 0.00 0.00 0.00 32 1013.6
20260831211607 76 298 20.0 31.0 0.00 0.00 0.00 33 1013.8
20260831210103 75 312 21.0 31.0 0.00 0.00 0.00 34 1013.9
20260831204604 76 267 17.0 29.0 0.00 0.00 0.00 33 1013.8
20260831203135 75 296 19.0 33.0 0.00 0.00 0.00 34 1013.8
20260831201611 75 292 22.0 35.0 0.00 0.00 0.00 34 1013.7
20260831200106 74 276 21.0 38.0 0.00 0.00 0.00 34 1013.6
20260831194614 74 319 19.0 32.0 0.00 0.00 0.00 34 1013.8
20260831193106 74 265 16.0 32.0 0.00 0.00 0.00 37 1013.6
20260831191613 73 287 20.0 34.0 0.00 0.00 0.00 37 1013.6
20260831190139 72 276 26.0 35.0 0.00 0.00 0.00 40 1013.6
20260831184609 72 329 22.0 32.0 0.00 0.00 0.00 40 1013.6
20260831183109 72 328 24.0 32.0 0.00 0.00 0.00 41 1013.7
20260831181606 72 311 18.0 35.0 0.00 0.00 0.00 41 1013.6
20260831180106 72 286 23.0 33.0 0.00 0.00 0.00 41 1013.6
20260831174604 71 287 22.0 34.0 0.00 0.00 0.00 42 1013.6
20260831173115 70 310 23.0 33.0 0.00 0.00 0.00 42 1013.6
20260831171607 70 311 20.0 34.0 0.00 0.00 0.00 42 1013.6
20260831170113 69 315 21.0 36.0 0.00 0.00 0.00 43 1013.4
20260831164605 68 256 22.0 33.0 0.00 0.00 0.00 42 1013.3
20260831163106 67 299 25.0 36.0 0.00 0.00 0.00 42 1013.3
20260831161612 67 287 20.0 38.0 0.00 0.00 0.00 42 1013.0
20260831160135 67 262 25.0 36.0 0.00 0.00 0.00 42 1013.1
20260831154637 66 269 18.0 34.0 0.00 0.00 0.00 42 1013.0
20260831153133 65 293 23.0 35.0 0.00 0.00 0.00 42 1012.8
20260831151606 64 259 21.0 36.0 0.00 0.00 0.00 43 1012.6
20260831150107 63 275 21.0 33.0 0.00 0.00 0.00 43 1012.7
20260831144608 62 271 21.0 36.0 0.00 0.00 0.00 43 1012.6
20260831143111 62 257 18.0 35.0 0.00 0.00 0.00 43 1012.5
20260831141605 62 266 24.0 32.0 0.00 0.00 0.00 43 1012.3
20260831140108 61 265 24.0 37.0 0.00 0.00 0.00 43 1012.1
20260831134611 60 255 24.0 32.0 0.00 0.00 0.00 45 1012.1
20260831133110 59 262 21.0 30.0 0.00 0.00 0.00 47 1012.3
20260831131610 58 266 17.0 24.0 0.00 0.00 0.00 50 1012.3
20260831130139 57 252 17.0 22.0 0.00 0.00 0.00 52 1012.2
20260831124608 56 257 16.0 26.0 0.00 0.00 0.00 53 1012.1
20260831123109 56 238 16.0 22.0 0.00 0.00 0.00 55 1011.8
20260831121608 55 257 14.0 20.0 0.00 0.00 0.00 56 1011.9
20260831120146 56 240 14.0 22.0 0.00 0.00 0.00 55 1011.7
20260831114607 56 251 17.0 27.0 0.00 0.00 0.00 53 1011.8
20260831113105 57 245 20.0 30.0 0.00 0.00 0.00 52 1011.7
20260831111606 57 245 18.0 26.0 0.00 0.00 0.00 53 1011.5
20260831110112 56 262 15.0 20.0 0.00 0.00 0.00 56 1011.5